Weather History for Ambler, AK

Change the Weather History Date:

Friday, March 15, 2013

  Actual Average Record
Temperature  
Mean Temperature 10 °F -  
Max Temperature 19 °F 11 °F 32 °F (2005)
Min Temperature 0 °F 0 °F -39 °F (1991)
Degree Days  
Heating Degree Days 56    
Moisture  
Dew Point -13 °F    
Average Humidity 36    
Maximum Humidity 43    
Minimum Humidity 30    
Precipitation  
Precipitation 0.00 in - - ()
Sea Level Pressure  
Sea Level Pressure 30.09 in    
Wind  
Wind Speed 6 mph (East)    
Max Wind Speed 15 mph    
Max Gust Speed 25 mph    
Visibility 10 miles    
Events      
Averages and records for this station are not official NWS values.
T = Trace of Precipitation, MM = Missing Value Source: NWS Daily Summary

Daily Weather History Graph

Daily Weather History Graph

Search for Another Location

Airport:

Trip Planner

Search our weather history database for the weather conditions in past years. The results will help you decide how hot, cold, wet, or windy it might be!

Date:

Astronomy

Mar. 15, 2013 Rise Set
Actual Time 8:49 AM AKDT 8:32 PM AKDT
Civil Twilight 7:56 AM AKDT 9:26 PM AKDT
Nautical Twilight 6:51 AM AKDT 10:31 PM AKDT
Astronomical Twilight 5:37 AM AKDT 11:46 PM AKDT
Moon 8:44 AM AKDT (3/15) 1:54 AM AKDT (3/15)
Length of Visible Light 13h 29m
Length of Day
11h 43m
Waxing Crescent, 16% of the Moon is Illuminated
Mar 15
Waxing Crescent
Mar 19
First Quarter
Mar 27
Full
Apr 2
Last Quarter
Apr 10
New

Hourly Weather History & Observations

Time (AKDT) Temp. Windchill Dew Point Humidity Pressure Visibility Wind Dir Wind Speed Gust Speed Precip Events Conditions
12:16 AM 3.2 °F -6.2 °F -16.6 °F 39% 30.25 in 10.0 mi NNE 4.6 mph - N/A   Clear
12:36 AM 3.2 °F -9.1 °F -16.6 °F 39% 30.24 in 10.0 mi North 6.9 mph - N/A   Clear
12:56 AM 3.2 °F -6.2 °F -16.6 °F 39% 30.25 in 10.0 mi NNE 4.6 mph - N/A   Clear
1:16 AM 3.2 °F -10.3 °F -18.4 °F 36% 30.25 in 10.0 mi NNE 8.1 mph - N/A   Clear
1:36 AM 3.2 °F -7.8 °F -18.4 °F 36% 30.25 in 10.0 mi North 5.8 mph - N/A   Clear
1:56 AM 3.2 °F -13.1 °F -16.6 °F 39% 30.24 in 10.0 mi NNE 11.5 mph - N/A   Clear
2:16 AM 1.4 °F -11.3 °F -18.4 °F 39% 30.24 in 10.0 mi NE 6.9 mph - N/A   Clear
2:36 AM 1.4 °F -9.9 °F -18.4 °F 39% 30.24 in 10.0 mi ENE 5.8 mph - N/A   Clear
2:56 AM 1.4 °F -6.2 °F -16.6 °F 43% 30.23 in 10.0 mi NNW 3.5 mph - N/A   Clear
3:16 AM 1.4 °F -8.3 °F -18.4 °F 39% 30.22 in 10.0 mi North 4.6 mph - N/A   Clear
3:36 AM 1.4 °F -9.9 °F -16.6 °F 43% 30.22 in 10.0 mi North 5.8 mph - N/A   Clear
3:56 AM 3.2 °F -9.1 °F -16.6 °F 39% 30.21 in 10.0 mi NNE 6.9 mph - N/A   Clear
4:16 AM 3.2 °F -11.3 °F -18.4 °F 36% 30.20 in 10.0 mi NNE 9.2 mph - N/A   Clear
4:36 AM 1.4 °F -12.5 °F -18.4 °F 39% 30.19 in 10.0 mi NNE 8.1 mph - N/A   Clear
4:56 AM 3.2 °F -10.3 °F -16.6 °F 39% 30.18 in 10.0 mi NNE 8.1 mph 16.1 mph N/A   Clear
5:16 AM 1.4 °F -13.5 °F -18.4 °F 39% 30.18 in 10.0 mi NNE 9.2 mph - N/A   Clear
5:36 AM 3.2 °F -4.2 °F -16.6 °F 39% 30.18 in 10.0 mi NNE 3.5 mph - N/A   Clear
5:56 AM 1.4 °F -11.3 °F -18.4 °F 39% 30.18 in 10.0 mi NNE 6.9 mph - N/A   Clear
6:16 AM -0.4 °F -13.4 °F -20.2 °F 39% 30.17 in 10.0 mi NNE 6.9 mph - N/A   Clear
6:36 AM -0.4 °F -8.3 °F -18.4 °F 43% 30.17 in 10.0 mi NNE 3.5 mph - N/A   Clear
6:56 AM 1.4 °F - -16.6 °F 43% 30.17 in 10.0 mi Calm Calm - N/A   Clear
7:16 AM 3.2 °F -4.2 °F -16.6 °F 39% 30.17 in 10.0 mi North 3.5 mph - N/A   Clear
7:36 AM 3.2 °F -7.8 °F -18.4 °F 36% 30.16 in 10.0 mi ENE 5.8 mph - N/A   Clear
7:56 AM 1.4 °F - -20.2 °F 36% 30.14 in 10.0 mi Calm Calm - N/A   Clear
8:16 AM 3.2 °F -7.8 °F -16.6 °F 39% 30.14 in 10.0 mi East 5.8 mph - N/A   Clear
8:36 AM 5.0 °F -5.6 °F -16.6 °F 36% 30.14 in 10.0 mi ESE 5.8 mph - N/A   Clear
8:56 AM 5.0 °F -5.6 °F -16.6 °F 36% 30.13 in 10.0 mi East 5.8 mph - N/A   Clear
9:16 AM -0.4 °F -8.3 °F -20.2 °F 39% 30.13 in 10.0 mi NW 3.5 mph - N/A   Clear
9:36 AM 5.0 °F -2.1 °F -14.8 °F 40% 30.13 in 10.0 mi NNE 3.5 mph - N/A   Clear
9:56 AM 6.8 °F -0.1 °F -16.6 °F 34% 30.12 in 10.0 mi NE 3.5 mph - N/A   Clear
10:16 AM 6.8 °F - -16.6 °F 34% 30.12 in 10.0 mi Calm Calm - N/A   Clear
10:36 AM 6.8 °F - -16.6 °F 34% 30.12 in 10.0 mi Calm Calm - N/A   Clear
10:56 AM 6.8 °F -2.0 °F -16.6 °F 34% 30.11 in 10.0 mi NE 4.6 mph - N/A   Clear
11:16 AM 8.6 °F - -14.8 °F 34% 30.11 in 10.0 mi Calm Calm - N/A   Clear
11:36 AM 10.4 °F 4.0 °F -13.0 °F 34% 30.11 in 10.0 mi SE 3.5 mph - N/A   Clear
11:56 AM 10.4 °F 4.0 °F -14.8 °F 31% 30.10 in 10.0 mi ESE 3.5 mph - N/A   Clear
12:16 PM 12.2 °F 2.9 °F -13.0 °F 32% 30.09 in 10.0 mi ESE 5.8 mph - N/A   Clear
12:36 PM 12.2 °F 4.3 °F -13.0 °F 32% 30.09 in 10.0 mi ESE 4.6 mph - N/A   Clear
12:56 PM 12.2 °F 4.3 °F - N/A% 30.08 in 10.0 mi SSE 4.6 mph - N/A   Clear
1:16 PM 12.2 °F 2.9 °F -11.2 °F 34% 30.08 in 10.0 mi ESE 5.8 mph - N/A   Clear
1:36 PM 14.0 °F 2.9 °F -11.2 °F 32% 30.07 in 10.0 mi East 8.1 mph - N/A   Clear
1:56 PM 14.0 °F 5.1 °F -11.2 °F 32% 30.06 in 10.0 mi ESE 5.8 mph - N/A   Clear
2:16 PM 15.8 °F 6.1 °F -11.2 °F 30% 30.05 in 10.0 mi ESE 6.9 mph - N/A   Clear
2:36 PM 15.8 °F 4.2 °F -9.4 °F 32% 30.05 in 10.0 mi ESE 9.2 mph - N/A   Clear
2:56 PM 17.6 °F 5.0 °F -9.4 °F 30% 30.03 in 10.0 mi SE 11.5 mph 19.6 mph N/A   Clear
3:16 PM 17.6 °F 5.7 °F -7.6 °F 32% 30.03 in 10.0 mi SE 10.4 mph 18.4 mph N/A   Clear
3:36 PM 17.6 °F 5.7 °F -7.6 °F 32% 30.02 in 10.0 mi SE 10.4 mph 20.7 mph N/A   Clear
3:56 PM 17.6 °F 6.4 °F -7.6 °F 32% 30.00 in 10.0 mi SE 9.2 mph 17.3 mph N/A   Clear
4:16 PM 19.4 °F 8.6 °F -7.6 °F 30% 29.99 in 10.0 mi ESE 9.2 mph - N/A   Clear
4:36 PM 19.4 °F 8.6 °F -7.6 °F 30% 29.99 in 9.0 mi ESE 9.2 mph - N/A   Clear
4:56 PM 19.4 °F 8.6 °F -5.8 °F 33% 29.98 in 10.0 mi ESE 9.2 mph 18.4 mph N/A   Clear
5:16 PM 19.4 °F 10.4 °F -5.8 °F 33% 29.98 in 10.0 mi ESE 6.9 mph - N/A   Clear
5:36 PM 19.4 °F 10.4 °F -5.8 °F 33% 29.98 in 10.0 mi ESE 6.9 mph - N/A   Clear
5:56 PM 19.4 °F 10.4 °F -5.8 °F 33% 29.98 in 10.0 mi SE 6.9 mph - N/A   Clear
6:16 PM 19.4 °F 9.5 °F -5.8 °F 33% 29.98 in 10.0 mi SE 8.1 mph - N/A   Clear
6:36 PM 19.4 °F 10.4 °F -5.8 °F 33% 29.97 in 10.0 mi ESE 6.9 mph - N/A   Clear
6:56 PM 19.4 °F 10.4 °F -5.8 °F 33% 29.97 in 10.0 mi ESE 6.9 mph - N/A   Clear
7:16 PM 19.4 °F 9.5 °F -5.8 °F 33% 29.97 in 10.0 mi ESE 8.1 mph 16.1 mph N/A   Clear
7:36 PM 19.4 °F 9.5 °F -5.8 °F 33% 29.96 in 10.0 mi ESE 8.1 mph - N/A   Clear
7:56 PM 19.4 °F 9.5 °F -5.8 °F 33% 29.96 in 10.0 mi SE 8.1 mph - N/A   Clear
8:16 PM 17.6 °F 6.4 °F -5.8 °F 35% 29.95 in 10.0 mi SE 9.2 mph 17.3 mph N/A   Clear
8:36 PM 17.6 °F 3.2 °F -5.8 °F 35% 29.96 in 10.0 mi SE 15.0 mph 25.3 mph N/A   Clear
9:56 PM 15.8 °F 1.4 °F -5.8 °F 38% 29.96 in 10.0 mi SE 13.8 mph 24.2 mph N/A   Clear
10:16 PM 15.8 °F 1.4 °F -5.8 °F 38% 29.97 in 10.0 mi SE 13.8 mph 20.7 mph N/A   Clear
10:36 PM 15.8 °F 2.1 °F -5.8 °F 38% 29.96 in 10.0 mi ESE 12.7 mph 25.3 mph N/A   Clear
10:56 PM 15.8 °F 2.7 °F -5.8 °F 38% 29.97 in 10.0 mi SE 11.5 mph 23.0 mph N/A   Clear
11:16 PM 15.8 °F 4.2 °F -5.8 °F 38% 29.98 in 10.0 mi SE 9.2 mph 19.6 mph N/A   Clear
11:36 PM 15.8 °F 3.4 °F -5.8 °F 38% 29.99 in 10.0 mi ESE 10.4 mph 16.1 mph N/A   Clear
11:56 PM 14.0 °F 2.0 °F -5.8 °F 41% 30.00 in 10.0 mi ESE 9.2 mph - N/A   Clear